Погода в Кораблино

Россия / Рязанская область     53°55′36″N   40°02′04″E
темп.,
°C
ветер,
м/с
пор.,
м/с
влажн.,
%
обл.,
%
осадки,
мм/ч
давл.,
гПа
погр.,
м
18 января, пн
пн1800:00−24св1110084 0.0 101820
03:00−24ссв119990 0.0 101920
06:00−23всв1198100 0.0 102020
09:00−22ссв2297100 0.0 102042
12:00−19в1292100 0.0 1020226
15:00−18ссв2393100 0.0 1019247
18:00−19ссв2396100 0.0 1019170
21:00−18ссв1298100 0.5 1019122
19 января, вт
вт1900:00−18с1298100 0.7 1019113
03:00−19с1297100 0.9 101921
06:00−19с1198100 0.1 101822
09:00−19зсз119899 0.3 101923
12:00−17сз1292100 0.1 1018246
15:00−16сз2394100 0.3 1017297
18:00−16зсз2397100 0.4 101795
21:00−16зсз2297100 0.8 101766
20 января, ср
ср2000:00−17зсз2396100 0.3 101847
03:00−16зсз239698 0.4 101868
06:00−17зсз239695 0.1 101955
09:00−17зсз239695 0.1 102040
12:00−15зсз249498 0.0 1020194
15:00−15з249475 0.0 1021107
18:00−19з23960 0.0 102320
21:00−20з23970 0.0 102422
21 января, чт
чт2100:00−20зюз33970 0.0 102423
03:00−20юз34970 0.0 102445
06:00−21ююз44927 0.0 102481
09:00−20ююз5119311 0.0 1023196
12:00−15ююз7128985 0.0 1020323
15:00−11ююз9169092 0.0 1017489
18:00−9юз81691100 0.4 1015603
21:00−6юз81689100 0.6 1013594
22 января, пт
пт2200:00−1юз8169299 0.1 1011642
03:000зюз8159199 0.3 1010618
06:00−1зюз71395100 0.1 1010583
09:000зюз61292100 0.3 1011600
12:00+1зюз61296100 0.0 1011428
15:00+1юз61196100 0.0 1011445
18:00+1юз51094100 0.0 1012436
21:000юз4995100 0.0 1012400